Regional Weather Roundup
Issued by NWS

Home | Current Version | Previous Version | Graphics & Text | Print | Product List | Glossary On
Versions: 1 2 3 4 5 6 7 8 9 10 11 12 13 14 15 16 17 18 19 20 21 22 23 24 25 26 27 28 29 30 31 32 33 34 35 36 37 38 39 40 41 42 43 44 45 46 47 48 49 50
000
ASUS43 KTOP 240508
RWRKS

WEATHER ROUNDUP FOR KANSAS
NATIONAL WEATHER SERVICE GOODLAND KS
1200 AM CDT THU AUG 24 2017

NOTE:  "FAIR" INDICATES FEW OR NO CLOUDS BELOW 12,000 FEET WITH NO
SIGNIFICANT WEATHER AND/OR OBSTRUCTIONS TO VISIBILITY.

KSZ001>006-013>018-027>032-041>047-240600-
NORTHWEST KANSAS

CITY           SKY/WX    TMP DP  RH WIND       PRES   REMARKS
GOODLAND       CLOUDY    67  62  84 S10       30.06S
HAYS           CLOUDY    62  50  64 S6        30.06
HILL CITY      CLEAR     68  49  50 S6        30.05S
RUSSELL        CLOUDY    67  51  56 SE12      30.05R
$$

KSZ061>065-074>080-084>089-240600-
SOUTHWEST KANSAS

CITY           SKY/WX    TMP DP  RH WIND       PRES   REMARKS
DODGE CITY     PTCLDY    64  52  64 SE9       30.08R
ELKHART          N/A     63  65 100 SE7         N/A
GARDEN CITY    CLOUDY    64  53  67 SE10      30.08R
GREAT BEND     CLEAR     62  52  69 S5        30.07R
LIBERAL        CLOUDY    67  64  90 S8        30.09R
PRATT          CLEAR     66  51  57 S3        30.08R
$$

KSZ066>073-081>083-090>101-240600-
SOUTHEAST KANSAS

CITY           SKY/WX    TMP DP  RH WIND       PRES   REMARKS
CHANUTE        CLEAR     64  56  75 E3        30.07R
COFFEYVILLE    CLEAR     61  57  87 NE3       30.05R
HUTCHINSON     CLEAR     63  54  72 SE7       30.06S
MEDICINE LODGE   N/A     68  52  56 SE6       30.06S
NEWTON         CLEAR     60  56  86 SE7       30.08R
PARSONS        CLEAR     61  56  83 CALM      30.07R
WICHITA INTL   CLEAR     66  56  70 SE7       30.06S
WICHITA JABRA  CLEAR     63  57  81 SE5       30.06S
WICHITA MCCONL CLEAR     66  54  64 SE7       30.07R
WINFIELD       CLEAR     65  55  70 E5        30.07S
$$

KSZ007>012-019>026-033>040-048>060-102>105-240600-
NORTHEAST KANSAS

CITY           SKY/WX    TMP DP  RH WIND       PRES   REMARKS
CONCORDIA      CLEAR     63  55  75 S9        30.06R
EMPORIA        CLEAR     63  56  78 SE7       30.07R
LAWRENCE       CLEAR     61  60  97 CALM      30.07R
MANHATTAN      CLEAR     62  58  86 CALM      30.06S
MARYSVILLE     CLEAR     63  55  77 S3        30.07S
OLATHE IND     CLEAR     62  57  83 S5        30.08R
OLATHE EXE     CLEAR     64  59  83 CALM      30.07S
SALINA         CLEAR     68  54  60 SE9       30.06S
TOPEKA BILLARD CLEAR     64  62  93 CALM      30.06R
TOPEKA FORBES  CLEAR     65  61  87 CALM      30.07R
$$




USA.gov is the U.S. government's official web portal to all federal, state and local government web resources and services.